Imperial, NE

4:28 AM MST on December 18, 2017 (GMT -0700)
Imperial Municipal

Weather History for KIML - June, 2013

Change the Weather History Date:

Sunday, June 30, 2013

  Actual Average Record
Temperature  
Mean Temperature 69 °F 74 °F  
Max Temperature 82 °F 89 °F 106 °F (1933)
Min Temperature 55 °F 60 °F 37 °F (1918)
Degree Days  
Heating Degree Days 0 0  
Month to date heating degree days 24 34  
Since 1 June heating degree days 24 34  
Cooling Degree Days 4 9  
Month to date cooling degree days 231 184  
Year to date cooling degree days 299 228  
Since 1 June cooling degree days 231 184  
Growing Degree Days 18 (Base 50)    
Moisture  
Dew Point 51 °F    
Average Humidity 59    
Maximum Humidity 83    
Minimum Humidity 35    
Precipitation  
Precipitation 0.00 in 0.08 in 2.96 in (1962)
Sea Level Pressure  
Sea Level Pressure 30.11 in    
Wind  
Wind Speed 6 mph (NE)    
Max Wind Speed 14 mph    
Max Gust Speed 18 mph    
Visibility 10 miles    
Events      
T = Trace of Precipitation, MM = Missing Value Source: NWS Daily Summary

Daily Weather History Graph

Daily Weather History Graph

Search for Another Location

Airport or City:

Trip Planner

Search our weather history database for the weather conditions in past years. The results will help you decide how hot, cold, wet, or windy it might be!

Date:

Astronomy

Jun. 30, 2013 Rise Set
Actual Time 5:19 AM MDT 8:20 PM MDT
Civil Twilight 4:46 AM MDT 8:53 PM MDT
Nautical Twilight 4:04 AM MDT 9:36 PM MDT
Astronomical Twilight 3:14 AM MDT 10:25 PM MDT
Moon 12:20 AM MDT (6/30) 1:36 PM MDT (6/30)
Length of Visible Light 16h 07m
Length of Day
15h 01m
Last Quarter, 45% of the Moon is Illuminated
Jun 30
Last Quarter
Jul 8
New
Jul 15
First Quarter
Jul 22
Full
Jul 29
Last Quarter

Hourly Weather History & Observations

Time (MDT) Temp. Dew Point Humidity Pressure Visibility Wind Dir Wind Speed Gust Speed Precip Events Conditions
12:53 AM 60.1 °F 51.1 °F 72% 30.08 in 10.0 mi Calm Calm - N/A   Clear
1:53 AM 57.9 °F 51.1 °F 78% 30.08 in 10.0 mi North 4.6 mph - N/A   Clear
2:53 AM 57.0 °F 50.0 °F 77% 30.09 in 10.0 mi North 4.6 mph - N/A   Clear
3:53 AM 55.9 °F 50.0 °F 80% 30.09 in 10.0 mi NNE 6.9 mph - N/A   Scattered Clouds
4:53 AM 55.9 °F 50.0 °F 80% 30.11 in 10.0 mi Calm Calm - N/A   Partly Cloudy
5:53 AM 57.9 °F 50.0 °F 75% 30.12 in 10.0 mi NNW 3.5 mph - N/A   Partly Cloudy
6:53 AM 61.0 °F 51.1 °F 70% 30.13 in 10.0 mi Calm Calm - N/A   Partly Cloudy
7:53 AM 66.0 °F 55.0 °F 68% 30.14 in 10.0 mi Calm Calm - N/A   Mostly Cloudy
8:53 AM 72.0 °F 54.0 °F 53% 30.12 in 10.0 mi SE 4.6 mph - N/A   Clear
9:53 AM 73.9 °F 52.0 °F 46% 30.12 in 10.0 mi Variable 3.5 mph - N/A   Clear
10:53 AM 75.9 °F 50.0 °F 40% 30.12 in 10.0 mi ENE 8.1 mph - N/A   Clear
11:53 AM 78.1 °F 52.0 °F 40% 30.11 in 10.0 mi Variable 3.5 mph - N/A   Partly Cloudy
12:53 PM 78.1 °F 51.1 °F 39% 30.12 in 10.0 mi ENE 9.2 mph - N/A   Scattered Clouds
1:53 PM 77.0 °F 52.0 °F 42% 30.12 in 10.0 mi North 8.1 mph - N/A   Overcast
2:53 PM 81.0 °F 52.0 °F 36% 30.11 in 10.0 mi NE 8.1 mph - N/A   Mostly Cloudy
3:53 PM 79.0 °F 51.1 °F 38% 30.09 in 10.0 mi North 3.5 mph - N/A   Scattered Clouds
4:53 PM 81.0 °F 51.1 °F 35% 30.08 in 10.0 mi NNE 9.2 mph - N/A   Clear
5:53 PM 80.1 °F 50.0 °F 35% 30.08 in 10.0 mi NNE 8.1 mph - N/A   Clear
6:53 PM 78.1 °F 48.9 °F 36% 30.07 in 10.0 mi NE 10.4 mph - N/A   Clear
7:53 PM 73.0 °F 50.0 °F 44% 30.09 in 10.0 mi East 6.9 mph - N/A   Clear
8:53 PM 66.9 °F 51.1 °F 57% 30.12 in 10.0 mi East 4.6 mph - N/A   Mostly Cloudy
9:53 PM 66.0 °F 50.0 °F 56% 30.13 in 10.0 mi ESE 8.1 mph - N/A   Partly Cloudy
10:53 PM 63.0 °F 50.0 °F 63% 30.14 in 10.0 mi SE 5.8 mph - N/A   Mostly Cloudy
11:53 PM 63.0 °F 51.1 °F 65% 30.15 in 10.0 mi ESE 6.9 mph - N/A   Overcast